FDX282 KPHX-KLAX

Flight info

Callsign FDX282
Flight time 0h 56m
Altitude 28000
Route KEENS3 WLVRN ESTWD HLYWD1
Aircraft MD11/H-SDE1E2E3FGHIJ2J3J4J5M1RWXY/LB1D1

Departure

Time 2026-05-04 00:47
Airport Phoenix Sky Harbor International Airport (KPHX)

Arrival

Time 2026-05-04 01:43
Airport Los Angeles International Airport (KLAX)
Time Latitude Longitude Altitude Speed Heading
2026-05-04 00:19 33.42567 -112.01652 1142 ft 0 kts 89°
2026-05-04 00:31 33.42567 -112.01654 1138 ft 1 kts 89°
2026-05-04 00:31 33.42567 -112.01674 1137 ft 3 kts 85°
2026-05-04 00:31 33.42565 -112.01698 1134 ft 3 kts 76°
2026-05-04 00:31 33.42559 -112.01720 1139 ft 3 kts 57°
2026-05-04 00:32 33.42550 -112.01735 1142 ft 3 kts 25°
2026-05-04 00:32 33.42541 -112.01740 1141 ft 1 kts
2026-05-04 00:32 33.42540 -112.01740 1141 ft 0 kts
2026-05-04 00:35 33.42542 -112.01740 1140 ft 1 kts
2026-05-04 00:35 33.42566 -112.01740 1141 ft 5 kts
2026-05-04 00:35 33.42610 -112.01740 1142 ft 0 kts
2026-05-04 00:38 33.42657 -112.01739 1141 ft 13 kts
2026-05-04 00:38 33.42727 -112.01739 1141 ft 6 kts
2026-05-04 00:38 33.42753 -112.01729 1140 ft 2 kts 27°
2026-05-04 00:39 33.42759 -112.01723 1141 ft 0 kts 39°
2026-05-04 00:39 33.42766 -112.01711 1141 ft 6 kts 54°
2026-05-04 00:39 33.42814 -112.01668 1143 ft 9 kts 19°
2026-05-04 00:39 33.42876 -112.01659 1140 ft 8 kts
2026-05-04 00:40 33.42931 -112.01658 1139 ft 7 kts
2026-05-04 00:40 33.42978 -112.01642 1138 ft 9 kts 33°
2026-05-04 00:40 33.42996 -112.01580 1140 ft 6 kts 95°
2026-05-04 00:40 33.42996 -112.01539 1140 ft 5 kts 89°
2026-05-04 00:41 33.42996 -112.01478 1141 ft 9 kts 90°
2026-05-04 00:41 33.42995 -112.01380 1141 ft 14 kts 90°
2026-05-04 00:41 33.42994 -112.01240 1140 ft 19 kts 90°
2026-05-04 00:41 33.42993 -112.01093 1140 ft 16 kts 90°
2026-05-04 00:42 33.42993 -112.00973 1141 ft 13 kts 89°
2026-05-04 00:42 33.42995 -112.00877 1142 ft 10 kts 89°
2026-05-04 00:42 33.42995 -112.00798 1141 ft 10 kts 89°
2026-05-04 00:42 33.42996 -112.00698 1141 ft 13 kts 90°
2026-05-04 00:43 33.42995 -112.00575 1142 ft 16 kts 90°
2026-05-04 00:43 33.42995 -112.00432 1142 ft 18 kts 90°
2026-05-04 00:43 33.42994 -112.00269 1142 ft 21 kts 90°
2026-05-04 00:43 33.42993 -112.00080 1142 ft 24 kts 90°
2026-05-04 00:44 33.42994 -111.99872 1142 ft 25 kts 89°
2026-05-04 00:44 33.42994 -111.99672 1142 ft 23 kts 90°
2026-05-04 00:44 33.42995 -111.99491 1143 ft 20 kts 90°
2026-05-04 00:44 33.43016 -111.99371 1142 ft 10 kts 47°
2026-05-04 00:45 33.43062 -111.99349 1144 ft 5 kts
2026-05-04 00:45 33.43084 -111.99354 1146 ft 4 kts 341°
2026-05-04 00:45 33.43105 -111.99383 1146 ft 3 kts 284°
2026-05-04 00:45 33.43104 -111.99389 1145 ft 0 kts 269°
2026-05-04 00:46 33.43103 -111.99478 1146 ft 38 kts 269°
2026-05-04 00:46 33.43104 -112.00127 1142 ft 115 kts 270°
2026-05-04 00:46 33.43102 -112.01338 1142 ft 173 kts 273°
2026-05-04 00:46 33.43125 -112.02851 1599 ft 179 kts 269°
2026-05-04 00:47 33.43162 -112.04261 2592 ft 163 kts 265°
2026-05-04 00:47 33.43229 -112.05668 3244 ft 179 kts 268°
2026-05-04 00:47 33.43115 -112.07128 3927 ft 172 kts 248°
2026-05-04 00:47 33.42700 -112.08470 4565 ft 180 kts 245°
2026-05-04 00:48 33.42190 -112.09993 4716 ft 216 kts 245°
2026-05-04 00:48 33.41597 -112.11776 4886 ft 243 kts 246°
2026-05-04 00:48 33.40932 -112.13770 5162 ft 268 kts 245°
2026-05-04 00:48 33.40239 -112.15819 6253 ft 262 kts 245°
2026-05-04 00:49 33.39610 -112.17836 7238 ft 263 kts 247°
2026-05-04 00:49 33.39250 -112.20017 8007 ft 275 kts 266°
2026-05-04 00:49 33.39415 -112.22323 8837 ft 282 kts 274°
2026-05-04 00:49 33.39744 -112.24699 9623 ft 289 kts 277°
2026-05-04 00:50 33.40102 -112.27048 10377 ft 292 kts 277°
2026-05-04 00:50 33.40472 -112.29445 11179 ft 293 kts 276°
2026-05-04 00:50 33.40839 -112.31850 12025 ft 294 kts 276°
2026-05-04 00:50 33.41203 -112.34261 12872 ft 295 kts 276°
2026-05-04 00:51 33.41565 -112.36684 13680 ft 298 kts 276°
2026-05-04 00:51 33.41928 -112.39134 14417 ft 299 kts 276°
2026-05-04 00:51 33.42290 -112.41580 15213 ft 299 kts 276°
2026-05-04 00:51 33.42651 -112.44032 16028 ft 299 kts 276°
2026-05-04 00:52 33.43010 -112.46476 16860 ft 298 kts 275°
2026-05-04 00:52 33.43368 -112.48920 17670 ft 298 kts 275°
2026-05-04 00:52 33.43725 -112.51363 18397 ft 298 kts 275°
2026-05-04 00:52 33.44082 -112.53817 18941 ft 305 kts 276°
2026-05-04 00:53 33.44453 -112.56401 19063 ft 324 kts 276°
2026-05-04 00:53 33.44834 -112.59138 19187 ft 341 kts 274°
2026-05-04 00:53 33.45045 -112.62029 19317 ft 356 kts 270°
2026-05-04 00:53 33.45125 -112.65055 19436 ft 370 kts 268°
2026-05-04 00:54 33.45161 -112.68163 19833 ft 375 kts 268°
2026-05-04 00:54 33.45190 -112.71292 20381 ft 376 kts 268°
2026-05-04 00:54 33.45220 -112.74430 20927 ft 378 kts 268°
2026-05-04 00:54 33.45269 -112.77583 21463 ft 380 kts 271°
2026-05-04 00:55 33.45691 -112.80718 21999 ft 385 kts 282°
2026-05-04 00:55 33.46562 -112.83775 22553 ft 390 kts 287°
2026-05-04 00:55 33.47610 -112.86779 23122 ft 393 kts 289°
2026-05-04 00:55 33.48712 -112.89784 23652 ft 394 kts 289°
2026-05-04 00:56 33.49815 -112.92794 24166 ft 396 kts 289°
2026-05-04 00:56 33.50909 -112.95823 24669 ft 397 kts 289°
2026-05-04 00:56 33.51991 -112.98866 25217 ft 397 kts 288°
2026-05-04 00:56 33.53066 -113.01921 25728 ft 399 kts 288°
2026-05-04 00:57 33.54140 -113.04993 26276 ft 400 kts 288°
2026-05-04 00:57 33.55217 -113.08089 26665 ft 405 kts 288°
2026-05-04 00:57 33.56298 -113.11202 27029 ft 404 kts 288°
2026-05-04 00:57 33.57377 -113.14314 27418 ft 404 kts 288°
2026-05-04 00:58 33.58455 -113.17428 27692 ft 406 kts 288°
2026-05-04 00:58 33.59542 -113.20571 27741 ft 412 kts 288°
2026-05-04 00:58 33.60648 -113.23778 27753 ft 418 kts 288°
2026-05-04 00:58 33.61760 -113.27000 27760 ft 419 kts 288°
2026-05-04 00:59 33.62877 -113.30232 27767 ft 419 kts 288°
2026-05-04 00:59 33.63992 -113.33464 27770 ft 419 kts 288°
2026-05-04 00:59 33.65108 -113.36700 27762 ft 419 kts 288°
2026-05-04 00:59 33.66206 -113.39891 27764 ft 419 kts 288°
2026-05-04 01:00 33.67318 -113.43125 27757 ft 419 kts 288°
2026-05-04 01:00 33.68430 -113.46364 28062 ft 420 kts 288°
2026-05-04 01:00 33.69542 -113.49606 28083 ft 420 kts 288°
2026-05-04 01:01 33.71761 -113.56086 28081 ft 419 kts 288°
2026-05-04 01:01 33.73975 -113.62568 28047 ft 420 kts 288°
2026-05-04 01:01 33.75082 -113.65812 27763 ft 420 kts 288°
2026-05-04 01:02 33.76188 -113.69057 27757 ft 420 kts 287°
2026-05-04 01:02 33.77286 -113.72289 27763 ft 420 kts 287°
2026-05-04 01:02 33.78026 -113.74487 27759 ft 420 kts 287°
2026-05-04 01:02 33.79472 -113.78794 27760 ft 420 kts 287°
2026-05-04 01:03 33.80567 -113.82048 27750 ft 420 kts 287°
2026-05-04 01:03 33.81295 -113.84206 27755 ft 420 kts 287°
2026-05-04 01:03 33.82765 -113.88556 27749 ft 420 kts 287°
2026-05-04 01:03 33.83866 -113.91811 27774 ft 420 kts 287°
2026-05-04 01:04 33.84595 -113.93965 27759 ft 420 kts 287°
2026-05-04 01:04 33.85694 -113.97216 27749 ft 419 kts 287°
2026-05-04 01:04 33.86793 -114.00467 27742 ft 420 kts 287°
2026-05-04 01:04 33.87891 -114.03719 27737 ft 420 kts 287°
2026-05-04 01:05 33.88988 -114.06975 27731 ft 420 kts 287°
2026-05-04 01:05 33.90080 -114.10234 27728 ft 420 kts 286°
2026-05-04 01:05 33.90972 -114.13559 27730 ft 416 kts 281°
2026-05-04 01:05 33.91639 -114.16949 27729 ft 415 kts 278°
2026-05-04 01:06 33.92211 -114.20357 27730 ft 415 kts 277°
2026-05-04 01:06 33.92754 -114.23762 27732 ft 415 kts 277°
2026-05-04 01:06 33.93299 -114.27172 27731 ft 415 kts 277°
2026-05-04 01:06 33.93853 -114.30579 27729 ft 415 kts 278°
2026-05-04 01:07 33.94415 -114.33987 27718 ft 415 kts 278°
2026-05-04 01:07 33.94983 -114.37393 27717 ft 415 kts 278°
2026-05-04 01:07 33.95553 -114.40798 27710 ft 416 kts 278°
2026-05-04 01:07 33.96126 -114.44214 27714 ft 416 kts 278°
2026-05-04 01:08 33.96698 -114.47627 27736 ft 416 kts 278°
2026-05-04 01:08 33.97269 -114.51041 27723 ft 416 kts 278°
2026-05-04 01:08 33.97839 -114.54454 27718 ft 416 kts 278°
2026-05-04 01:08 33.98408 -114.57870 27716 ft 416 kts 277°
2026-05-04 01:09 33.98976 -114.61284 27714 ft 416 kts 277°
2026-05-04 01:09 33.99543 -114.64696 27714 ft 416 kts 277°
2026-05-04 01:09 34.00109 -114.68114 27714 ft 416 kts 277°
2026-05-04 01:09 34.00674 -114.71532 27713 ft 416 kts 277°
2026-05-04 01:10 34.01239 -114.74950 27712 ft 416 kts 277°
2026-05-04 01:10 34.01801 -114.78365 27723 ft 416 kts 277°
2026-05-04 01:10 34.02364 -114.81782 27724 ft 416 kts 277°
2026-05-04 01:10 34.02926 -114.85204 27718 ft 416 kts 277°
2026-05-04 01:11 34.03485 -114.88620 27718 ft 416 kts 277°
2026-05-04 01:11 34.04045 -114.92043 27718 ft 416 kts 277°
2026-05-04 01:11 34.04604 -114.95462 27724 ft 416 kts 277°
2026-05-04 01:11 34.05163 -114.98889 27720 ft 416 kts 277°
2026-05-04 01:12 34.05707 -115.02259 27733 ft 415 kts 277°
2026-05-04 01:12 34.06251 -115.05671 27728 ft 413 kts 277°
2026-05-04 01:12 34.06793 -115.09070 27764 ft 412 kts 277°
2026-05-04 01:12 34.07343 -115.12502 27728 ft 409 kts 277°
2026-05-04 01:13 34.07876 -115.15814 27733 ft 408 kts 277°
2026-05-04 01:13 34.08417 -115.19167 27727 ft 406 kts 277°
2026-05-04 01:13 34.08955 -115.22502 27730 ft 405 kts 277°
2026-05-04 01:13 34.09492 -115.25836 27728 ft 404 kts 277°
2026-05-04 01:14 34.10026 -115.29159 27735 ft 403 kts 277°
2026-05-04 01:14 34.10558 -115.32472 27732 ft 402 kts 277°
2026-05-04 01:14 34.11089 -115.35783 27724 ft 402 kts 277°
2026-05-04 01:14 34.11618 -115.39090 27727 ft 401 kts 277°
2026-05-04 01:15 34.12145 -115.42389 27740 ft 400 kts 277°
2026-05-04 01:15 34.12670 -115.45686 27739 ft 400 kts 277°
2026-05-04 01:15 34.13195 -115.48981 27742 ft 400 kts 277°
2026-05-04 01:15 34.13718 -115.52278 27754 ft 400 kts 277°
2026-05-04 01:16 34.14241 -115.55571 27746 ft 400 kts 277°
2026-05-04 01:16 34.14762 -115.58868 27736 ft 399 kts 277°
2026-05-04 01:16 34.15283 -115.62158 27736 ft 399 kts 277°
2026-05-04 01:16 34.15802 -115.65450 27748 ft 400 kts 277°
2026-05-04 01:17 34.16208 -115.68762 27752 ft 397 kts 270°
2026-05-04 01:17 34.16185 -115.72061 27752 ft 395 kts 264°
2026-05-04 01:17 34.15918 -115.75359 27774 ft 395 kts 262°
2026-05-04 01:17 34.15570 -115.78641 27785 ft 394 kts 261°
2026-05-04 01:18 34.15209 -115.81917 27788 ft 394 kts 261°
2026-05-04 01:18 34.14858 -115.85191 27795 ft 394 kts 261°
2026-05-04 01:18 34.14519 -115.88475 27806 ft 393 kts 262°
2026-05-04 01:18 34.14190 -115.91752 27821 ft 393 kts 262°
2026-05-04 01:19 34.13867 -115.95027 27833 ft 393 kts 262°
2026-05-04 01:19 34.13547 -115.98302 27842 ft 392 kts 262°
2026-05-04 01:19 34.13225 -116.01567 27847 ft 392 kts 262°
2026-05-04 01:19 34.12903 -116.04838 27849 ft 392 kts 262°
2026-05-04 01:20 34.12581 -116.08105 27855 ft 392 kts 262°
2026-05-04 01:20 34.12260 -116.11376 27856 ft 392 kts 262°
2026-05-04 01:20 34.11938 -116.14645 27859 ft 393 kts 262°
2026-05-04 01:20 34.11616 -116.17912 27856 ft 392 kts 262°
2026-05-04 01:21 34.11294 -116.21173 27855 ft 391 kts 262°
2026-05-04 01:21 34.10971 -116.24435 27851 ft 392 kts 262°
2026-05-04 01:21 34.10647 -116.27701 27797 ft 392 kts 262°
2026-05-04 01:21 34.10313 -116.30962 27796 ft 392 kts 261°
2026-05-04 01:22 34.09967 -116.34223 27794 ft 392 kts 262°
2026-05-04 01:22 34.09617 -116.37488 27791 ft 392 kts 261°
2026-05-04 01:22 34.09267 -116.40749 27792 ft 392 kts 261°
2026-05-04 01:22 34.08917 -116.44008 27793 ft 392 kts 261°
2026-05-04 01:23 34.08566 -116.47271 27794 ft 392 kts 261°
2026-05-04 01:23 34.08216 -116.50530 27801 ft 392 kts 261°
2026-05-04 01:23 34.07865 -116.53791 27804 ft 392 kts 261°
2026-05-04 01:23 34.07514 -116.57049 27785 ft 392 kts 262°
2026-05-04 01:24 34.07182 -116.60308 27795 ft 391 kts 262°
2026-05-04 01:24 34.06882 -116.63446 27598 ft 373 kts 262°
2026-05-04 01:24 34.06600 -116.66494 27149 ft 359 kts 262°
2026-05-04 01:24 34.06329 -116.69448 26610 ft 351 kts 262°
2026-05-04 01:25 34.06148 -116.71413 26244 ft 348 kts 262°
2026-05-04 01:25 34.05793 -116.75234 25569 ft 344 kts 262°
2026-05-04 01:25 34.05526 -116.78101 25068 ft 344 kts 262°
2026-05-04 01:25 34.05260 -116.80957 24564 ft 342 kts 262°
2026-05-04 01:26 34.04993 -116.83801 24199 ft 341 kts 262°
2026-05-04 01:26 34.04727 -116.86638 23956 ft 340 kts 262°
2026-05-04 01:26 34.04429 -116.89461 23903 ft 339 kts 260°
2026-05-04 01:26 34.04083 -116.92267 23801 ft 339 kts 259°
2026-05-04 01:27 34.03721 -116.95062 23630 ft 337 kts 259°
2026-05-04 01:27 34.03355 -116.97853 23363 ft 338 kts 259°
2026-05-04 01:27 34.02989 -117.00649 22763 ft 336 kts 259°
2026-05-04 01:27 34.02636 -117.03415 22213 ft 332 kts 259°
2026-05-04 01:28 34.02303 -117.06160 21677 ft 330 kts 260°
2026-05-04 01:28 34.01978 -117.08887 21120 ft 328 kts 260°
2026-05-04 01:28 34.01658 -117.11595 20607 ft 325 kts 260°
2026-05-04 01:28 34.01339 -117.14287 20079 ft 323 kts 260°
2026-05-04 01:29 34.01022 -117.16964 19551 ft 322 kts 259°
2026-05-04 01:29 34.00707 -117.19622 19082 ft 319 kts 259°
2026-05-04 01:29 34.00393 -117.22259 18571 ft 317 kts 259°
2026-05-04 01:29 34.00077 -117.24886 18157 ft 317 kts 259°
2026-05-04 01:30 33.99766 -117.27472 17644 ft 316 kts 259°
2026-05-04 01:30 33.99452 -117.30083 17123 ft 316 kts 259°
2026-05-04 01:30 33.99139 -117.32722 16626 ft 318 kts 259°
2026-05-04 01:30 33.98831 -117.35351 16111 ft 317 kts 259°
2026-05-04 01:31 33.98524 -117.37982 15606 ft 318 kts 259°
2026-05-04 01:31 33.98214 -117.40624 15094 ft 319 kts 259°
2026-05-04 01:31 33.97905 -117.43267 14635 ft 319 kts 259°
2026-05-04 01:31 33.97595 -117.45909 14221 ft 314 kts 259°
2026-05-04 01:32 33.97401 -117.48514 14009 ft 313 kts 268°
2026-05-04 01:32 33.97635 -117.51115 13894 ft 316 kts 275°
2026-05-04 01:32 33.98051 -117.53724 13783 ft 318 kts 277°
2026-05-04 01:32 33.98516 -117.56347 13347 ft 321 kts 278°
2026-05-04 01:33 33.98989 -117.58949 12960 ft 316 kts 278°
2026-05-04 01:33 33.99457 -117.61545 12366 ft 319 kts 278°
2026-05-04 01:33 33.99924 -117.64159 11769 ft 319 kts 278°
2026-05-04 01:33 34.00381 -117.66766 11265 ft 313 kts 276°
2026-05-04 01:34 34.00519 -117.69340 10891 ft 306 kts 265°
2026-05-04 01:34 34.00366 -117.71872 10508 ft 299 kts 261°
2026-05-04 01:34 34.00162 -117.74070 10337 ft 284 kts 260°
2026-05-04 01:34 33.99929 -117.76396 10044 ft 277 kts 260°
2026-05-04 01:35 33.99692 -117.78710 9511 ft 279 kts 260°
2026-05-04 01:35 33.99459 -117.81000 9082 ft 273 kts 260°
2026-05-04 01:35 33.99234 -117.83257 8677 ft 271 kts 260°
2026-05-04 01:35 33.99011 -117.85518 8199 ft 271 kts 260°
2026-05-04 01:36 33.98792 -117.87752 7835 ft 268 kts 261°
2026-05-04 01:36 33.98573 -117.89984 7455 ft 268 kts 260°
2026-05-04 01:36 33.98351 -117.92222 6962 ft 271 kts 259°
2026-05-04 01:36 33.98202 -117.93718 6636 ft 273 kts 259°
2026-05-04 01:37 33.97902 -117.96742 6077 ft 270 kts 260°
2026-05-04 01:37 33.97681 -117.98974 5695 ft 267 kts 262°
2026-05-04 01:37 33.97463 -118.01186 5321 ft 265 kts 262°
2026-05-04 01:37 33.97248 -118.03355 5037 ft 260 kts 262°
2026-05-04 01:38 33.97038 -118.05489 4976 ft 255 kts 263°
2026-05-04 01:38 33.96831 -118.07621 4968 ft 258 kts 262°
2026-05-04 01:38 33.96618 -118.09783 4737 ft 261 kts 262°
2026-05-04 01:38 33.96401 -118.11950 4374 ft 259 kts 262°
2026-05-04 01:39 33.96189 -118.14079 4043 ft 253 kts 262°
2026-05-04 01:39 33.95982 -118.16134 3725 ft 241 kts 262°
2026-05-04 01:39 33.95787 -118.18081 3413 ft 227 kts 261°
2026-05-04 01:39 33.95603 -118.19904 3118 ft 210 kts 261°
2026-05-04 01:40 33.95434 -118.21579 2827 ft 193 kts 260°
2026-05-04 01:40 33.95275 -118.23142 2564 ft 185 kts 261°
2026-05-04 01:40 33.95116 -118.24690 2353 ft 186 kts 262°
2026-05-04 01:40 33.94960 -118.26213 2094 ft 181 kts 262°
2026-05-04 01:41 33.94810 -118.27695 1863 ft 173 kts 262°
2026-05-04 01:41 33.94669 -118.29086 1612 ft 163 kts 262°
2026-05-04 01:41 33.94530 -118.30445 1396 ft 161 kts 262°
2026-05-04 01:41 33.94396 -118.31748 1192 ft 154 kts 262°
2026-05-04 01:42 33.94267 -118.33010 965 ft 151 kts 262°
2026-05-04 01:42 33.94131 -118.34266 791 ft 151 kts 263°
2026-05-04 01:42 33.94006 -118.35512 573 ft 152 kts 264°
2026-05-04 01:42 33.93881 -118.36779 407 ft 152 kts 264°
2026-05-04 01:43 33.93760 -118.38038 217 ft 150 kts 263°
2026-05-04 01:43 33.93644 -118.39189 132 ft 116 kts 262°
2026-05-04 01:43 33.93568 -118.39969 133 ft 73 kts 263°
2026-05-04 01:43 33.93516 -118.40431 131 ft 39 kts 262°
2026-05-04 01:44 33.93492 -118.40651 128 ft 16 kts 258°
2026-05-04 01:44 33.93453 -118.40714 127 ft 4 kts 200°
2026-05-04 01:44 33.93425 -118.40715 128 ft 4 kts 176°
2026-05-04 01:44 33.93402 -118.40708 131 ft 3 kts 166°
2026-05-04 01:45 33.93380 -118.40692 127 ft 3 kts 134°
2026-05-04 01:45 33.93376 -118.40681 125 ft 0 kts 110°
2026-05-04 01:45 33.93376 -118.40591 131 ft 9 kts 84°
2026-05-04 01:46 33.93383 -118.40526 131 ft 7 kts 83°
2026-05-04 01:46 33.93388 -118.40471 126 ft 7 kts 83°
2026-05-04 01:46 33.93395 -118.40410 133 ft 8 kts 83°
2026-05-04 01:46 33.93402 -118.40340 133 ft 9 kts 83°
2026-05-04 01:47 33.93410 -118.40261 131 ft 10 kts 83°
2026-05-04 01:47 33.93419 -118.40173 133 ft 11 kts 82°
2026-05-04 01:47 33.93430 -118.40078 131 ft 12 kts 82°
2026-05-04 01:47 33.93442 -118.39976 131 ft 12 kts 83°
2026-05-04 01:48 33.93449 -118.39895 131 ft 9 kts 84°
2026-05-04 01:48 33.93456 -118.39815 131 ft 10 kts 84°
2026-05-04 01:48 33.93465 -118.39724 125 ft 12 kts 84°
2026-05-04 01:48 33.93474 -118.39616 131 ft 14 kts 84°
2026-05-04 01:49 33.93485 -118.39492 133 ft 15 kts 84°
2026-05-04 01:49 33.93498 -118.39378 133 ft 12 kts 83°
2026-05-04 01:49 33.93506 -118.39293 130 ft 8 kts 83°
2026-05-04 01:49 33.93510 -118.39252 126 ft 6 kts 83°
2026-05-04 01:50 33.93514 -118.39210 127 ft 4 kts 83°
2026-05-04 01:50 33.93517 -118.39179 132 ft 4 kts 83°
2026-05-04 01:50 33.93520 -118.39146 133 ft 5 kts 83°
2026-05-04 01:50 33.93525 -118.39096 133 ft 7 kts 83°
2026-05-04 01:51 33.93532 -118.39026 128 ft 10 kts 83°
2026-05-04 01:51 33.93542 -118.38956 131 ft 7 kts 79°
2026-05-04 01:51 33.93549 -118.38910 128 ft 4 kts 83°
2026-05-04 01:51 33.93547 -118.38883 126 ft 3 kts 97°
2026-05-04 01:52 33.93537 -118.38863 130 ft 3 kts 128°
2026-05-04 01:52 33.93521 -118.38852 132 ft 3 kts 159°
2026-05-04 01:52 33.93496 -118.38851 131 ft 5 kts 178°
2026-05-04 01:52 33.93466 -118.38847 127 ft 3 kts 172°
2026-05-04 01:53 33.93454 -118.38845 131 ft 1 kts 173°
2026-05-04 01:53 33.93448 -118.38844 131 ft 1 kts 173°
2026-05-04 01:53 33.93435 -118.38843 126 ft 2 kts 173°
2026-05-04 01:53 33.93418 -118.38840 128 ft 2 kts 173°
2026-05-04 01:54 33.93411 -118.38839 130 ft 0 kts 173°
2026-05-04 01:54 33.93406 -118.38838 131 ft 0 kts 173°
2026-05-04 01:54 33.93403 -118.38838 131 ft 0 kts 173°